www.pogodaiklimat.ru

Погода и климат >> Архив погоды >> Россия >> Ставропольский край >> Минеральные Воды


АРХИВ ПОГОДЫ в Минеральных Водах

Время (UTC), дата Ветер
(напр.,м/с)
 
Видим.   Явления Облачность Т
(С)
Тd
(С)
f
(%)
Тe
(С)
Тes
(С)
Комфортность P
(гПа)
Po
(гПа)
Тmin
(С)
Tmax
(С)
R
(мм)
R24
(мм)
S
(см)
00 16.08 В 2 10 км 10/10 1000 м
[Sc]
+18.9 +14.8 77 +21 +21 комфорт 1009.7 973.4
03 16.08 В 2 20 км 10/10 1000 м
[Sc]
+19.9 +15.7 77 +23 +23 комфорт 1009.9 973.8 +18.0
06 16.08 СВ 2 20 км ясно +24.7 +17.0 62 +28 +37 душно 1008.8 973.3
09 16.08 СВ 3 20 км ясно +29.8 +17.1 46 +33 +47 душно 1006.6 971.8
12 16.08 СВ 3 20 км 3/0
[Ci fib]
+31.4 +16.4 41 +35 +42 очень
душно
1004.9 970.3
15 16.08 СВ 1 20 км 3/3 1000 м
[Cu hum]
+29.4 +16.8 47 +33 +34 душно 1005.4 970.5 +31.9
18 16.08 В 1 10 км 10/5 1500 м
[Sc Ac trans]
+26.0 +17.1 58 +30 +30 душно 1006.1 970.8
21 16.08 З 1 10 км 10/10 1000 м
[Sc]
+23.7 +17.2 67 +28 +28 душно 1007.0 971.4
00 17.08 В 1 10 км 10/10 1000 м
[Sc]
+22.0 +16.3 70 +26 +26 душно 1006.6 970.9
03 17.08 З 1 20 км 8/8 1000 м
[Sc]
+19.9 +16.3 80 +23 +24 комфорт 1007.4 971.4 +19.8
06 17.08 З 3 10 км {гроза} 10/10 300 м
[Cb cap]
+23.6 +18.1 71 +28 +28 душно 1008.2 972.6
09 17.08 ЮЗ 2 10 км слаб. ливневой дождь 10/10 1000 м
[Cb cap]
+25.0 +19.6 72 +30 +30 душно 1009.0 973.5
12 17.08 ЮЗ 1 20 км в посл. час ливневой дождь 10/10 1000 м
[Cb cap]
+27.0 +19.6 64 +33 +33 очень
душно
1009.0 973.8
15 17.08 Ю 2
{13}
20 км в посл. час гроза {ливн. осадки} 8/3 1000 м
[Sc Ac trans]
+23.7 +18.7 74 +28 +29 душно 1009.0 973.4 +28.2 3
18 17.08 штиль 0 10 км {гроза, ливн. осадки} 6/0
[Ac trans]
+22.2 +19.2 83 +28 +28 душно 1010.6 974.8
21 17.08 штиль 0 10 км 6/0
[Ac trans]
+20.0 +18.6 92 +23 +23 комфорт 1010.1 974.0
00 18.08 штиль 0 10 км 8/0
[Ac trans]
+19.1 +17.9 93 +21 +21 комфорт 1009.3 973.2
03 18.08 З 1 4000 м дымка 8/3 1000 м
[Sc Ac trans]
+19.8 +18.4 92 +24 +24 комфорт 1009.0 972.9 +18.9
06 18.08 З 1 10 км 9/3 600 м
[Sc Ac trans]
+24.9 +18.7 68 +30 +33 душно 1008.5 973.0
09 18.08 ЮЗ 1 20 км 10/10 1000 м
[Sc]
+27.4 +18.5 58 +32 +32 очень
душно
1007.6 978.5
12 18.08 ЮЗ 2 20 км 10/10 1000 м
[Sc]
+29.7 +18.7 52 +35 +35 очень
душно
1007.3 972.5
15 18.08 ЮЗ 4 20 км ясно +28.1 +18.6 56 +33 +33 очень
душно
1008.0 972.9 +30.3
18 18.08 ЮЗ 3 10 км 8/0
[Ac lent]
+25.4 +18.5 66 +30 +30 душно 1009.7 974.3
21 18.08 ЮЗ 4 10 км 8/0
[Ac cast]
+23.9 +18.5 72 +28 +28 душно 1011.0 975.4
00 19.08 З 1 10 км ясно +21.4 +18.5 84 +26 +26 душно 1012.3 976.3
03 19.08 З 1 20 км ясно +19.8 +18.2 90 +24 +24 комфорт 1013.8 977.5 +19.7
06 19.08 З 3 20 км ясно +27.0 +17.2 55 +31 +38 душно 1013.6 978.2
09 19.08 ЮЗ 2 20 км ясно +31.6 +15.3 37 +34 +50 душно 1013.0 978.1
12 19.08 З 1 20 км 4/0
[Ac cast]
+34.6 +12.1 26 +35 +43 очень
жарко
1012.2 977.6
15 19.08 штиль 0 20 км ясно +32.7 +12.4 29 +33 +34 жарко 1012.6 977.8 +35.3
18 19.08 З 1 10 км ясно +25.0 +15.3 55 +28 +28 жарко 1015.1 979.4
21 19.08 З 1 10 км 10/10 1000 м
[Sc]
+24.1 +16.4 62 +28 +28 душно 1015.2 979.3
00 20.08 З 1 10 км 3/3 1000 м
[Sc]
+22.4 +16.4 69 +27 +27 душно 1015.3 979.2
03 20.08 З 1 н/о н/о +21.6 +15.5 68 +25 +25 комфорт 1016.2 980.0 +20.8
06 20.08 З 1 20 км 8/0
[Ac lent Ci sp]
+27.6 +15.3 47 +30 +36 жарко 1016.1 980.6
09 20.08 В 1 20 км 10/0
[Ci]
+33.0 +13.3 30 +34 +48 очень
жарко
1014.5 979.7
12 20.08 З 1 20 км 8/3 1000 м
[Sc Ac trans Ci]
+35.4 +13.0 26 +36 +41 очень
жарко
1013.2 978.7
15 20.08 штиль 0 20 км 10/4 1000 м
[Sc Ac trans Ci]
+30.6 +15.9 41 +33 +34 душно 1012.9 977.9 +36.2
18 20.08 З 1 10 км ясно +24.9 +17.2 62 +29 +29 душно 1014.2 978.5
21 20.08 Ю 1 10 км ясно +23.3 +16.9 67 +28 +28 душно 1015.2 979.3
00 21.08 ЮЗ 1 10 км ясно +21.6 +16.9 75 +26 +26 душно 1014.9 978.8
03 21.08 штиль 0 20 км 3/0
[Ac trans]
+20.3 +15.7 75 +23 +23 комфорт 1015.4 979.1 +19.8
06 21.08 С 1 20 км ясно +27.2 +13.5 43 +29 +39 жарко 1014.4 978.9
09 21.08 С 2 20 км 10/0
[Cs]
+32.4 +12.4 30 +33 +45 жарко 1012.5 977.6
12 21.08 СВ 3 20 км 8/0
[Cs]
+35.4 +13.1 26 +36 +42 очень
жарко
1010.1 975.7
15 21.08 СВ 3 20 км 10/3 1000 м
[Sc Ac trans Cs]
+33.9 +13.2 29 +35 +35 очень
жарко
1009.6 975.0 +35.8
18 21.08 СВ 2 10 км ясно +27.0 +8.3 31 +27 +27 жарко 1011.2 975.7
21 21.08 СВ 1 10 км ясно +23.5 +7.1 35 +24 +24 комфорт 1011.8 975.9
00 22.08 В 2 10 км 6/0
[Cs]
+19.7 +9.3 51 +21 +21 комфорт 1012.1 975.8
03 22.08 ЮЗ 1 20 км ясно +15.7 +10.8 73 +16 +17 прохладно 1013.3 976.4 +15.7
06 22.08 В 2 20 км ясно +26.4 +13.0 43 +28 +36 жарко 1011.8 976.3
09 22.08 В 7-12
{12}
20 км 10/0
[Ci]
+33.2 +9.1 23 +32 +36 жарко 1009.9 975.2
12 22.08 СВ 5-10
{13}
20 км 10/0
[Ci]
+36.0 +4.7 14 +33 +37 жарко 1009.0 974.6
15 22.08 СВ 3
{11}
20 км 8/0
[Ac cast]
+33.3 +2.6 14 +30 +30 жарко 1009.1 974.4 +36.5
18 22.08 В 1 10 км 3/0
[Ac cast]
+25.5 +6.9 30 +25 +25 комфорт 1012.0 976.3
21 22.08 В 1 10 км ясно +22.3 +7.8 39 +23 +23 комфорт 1012.5 976.4

 

Местоположение метеостанции Минеральные Воды (Ставропольский край, Россия): широта 44.22 долгота 43.10 высота над уровнем моря 313 м.

В архиве по умолчанию представлена погода в Минеральных Водах за последнюю неделю. Архивные данные за месяц целиком и за предыдущие месяцы, начиная с января 2011 года, Вы можете получить, выбрав интересующий диапазон дат из раскрывающегося списка и нажав кнопку "Ввод!".


*Определитесь, кто Вы:
робот инопланетянин человек

Внимание! Время в таблицах - всемирное. Для получения местного времени необходимо прибавить поправку, которая равна 3 ч.

Смотрите также архив погоды в соседних городах и на ближайших метеорологических станциях:

Погода в Георгиевске (Ставропольский край, Россия) (30 км)
Погода в Кисловодске (Ставропольский край, Россия) (47 км)
Погода в Александровском (Ставропольский край, Россия) (56 км)
Погода в Шаджатмазе (Карачаево-Черкессия, Россия) (64 км)
Погода в Зеленокумске (Ставропольский край, Россия) (66 км)
Погода в Черкесске (Карачаево-Черкессия, Россия) (82 км)
Погода в Нальчике (Кабардино-Балкария, Россия) (88 км)
Погода в Прохладный (Кабардино-Балкария, Россия) (92 км)
Погода в Тырныаузе (Кабардино-Балкария, Россия) (95 км)
Погода в Невинномысске (Ставропольский край, Россия) (101 км)

Пояснения к столбцам:

Ветер - указаны скорость ветра в м/с - средняя за 10 мин, порывы в срок и между сроками (в фигурных скобках) и направление, откуда дует ветер: С - северный, СВ - северо-восточный, В - восточный, ЮВ - юго-восточный, Ю - южный, ЮЗ - юго-западный, З - западный, СЗ - северо-западный.
Видимость - горизонтальная дальность видимости в метрах или километрах. При видимости от 1 до 10 км при отсутствии осадков обычно наблюдается дымка, при ухудшении видимости до 1 км и менее - туман. В сухую погоду видимость может ухудшаться дымом, пылью или мглою.
Явления - указаны атмосферные явления, наблюдавшиеся в срок или в последний час перед сроком; фигурными скобками обозначены явления, наблюдавшиеся между сроками (за 1-3 часа до срока); квадратными скобками обозначены град или гололедные отложения с указанием их диаметра в мм.
Облачность - указаны через наклонную черту общая и нижняя облачность в баллах и высота нижней границы облаков в метрах; квадратными скобками обозначены формы облаков: Ci - перистые, Cs - перисто-слоистые, Cc - перисто-кучевые, Ac - высококучевые, As - высокослоистые, Sc - слоисто-кучевые, Ns - слоисто-дождевые, Cu - кучевые, Cb - кучево-дождевые. Подробнее классификацию облаков см. в Атласе облаков (PDF).
T - Температура воздуха - температура, измеренная на высоте 2 м над землей.
Td - Температура точки росы - температура, при понижении до которой содержащийся в воздухе водяной пар достигнет насыщения.
f - Относительная влажность воздуха - влажноcть воздуха, измеренная на высоте 2 м над землей.
Te - Эффективная температура - температура, которую ощущает одетый по сезону человек в тени. Характеристика душности погоды. При расчете учитывается влияние влажности воздуха и скорости ветра на теплоощущения человека.
Tes - Эффективная температура на солнце - температура, которую ощущает человек, с поправкой на солнечный нагрев. Характеристика знойности погоды. Зависит от высоты солнца над горизонтом, облачности и скорости ветра. Ночью, в пасмурную погоду, а также при ветре 12 м/с и более поправка равна нулю.
P - Атмосферное давление - приведенное к уровню моря атмосферное давление.
Po - Атмосферное давление - измеренное на уровне метеостанции атмосферное давление.
Tmin - Минимальная температура - минимум температуры воздуха на высоте 2 м над землей.
Tmax - Максимальная температура - максимум температуры воздуха на высоте 2 м над землей.
R - Количество осадков - Количество выпавших осадков за период времени, мм. При наведении курсора мыши на число - период времени, за который выпало указанное количество осадков.
R24 - Количество осадков - Количество выпавших осадков за 24 часа, мм.
S - Снежный покров - Высота снежного покрова, см. При наведении курсора мыши на число - состояние снежного покрова и степень покрытия местности в баллах.